TimeAKDT,TemperatureF,Dew PointF,Humidity,Sea Level PressureIn,VisibilityMPH,Wind Direction,Wind SpeedMPH,Gust SpeedMPH,PrecipitationIn,Events,Conditions,WindDirDegrees,DateUTC
12:16 AM,53.6,50.0,88,30.02,9.0,Calm,Calm,-,N/A,,Overcast,0,2013-08-20 08:16:00
12:36 AM,51.8,50.0,94,30.02,10.0,Calm,Calm,-,N/A,,Overcast,0,2013-08-20 08:36:00
12:56 AM,53.6,50.0,88,30.02,10.0,Calm,Calm,-,N/A,,Overcast,0,2013-08-20 08:56:00
1:16 AM,53.6,50.0,88,30.02,10.0,Calm,Calm,-,N/A,,Overcast,0,2013-08-20 09:16:00
1:36 AM,51.8,50.0,94,30.03,10.0,WSW,3.5,-,N/A,,Overcast,250,2013-08-20 09:36:00
1:56 AM,51.8,50.0,94,30.03,10.0,Calm,Calm,-,N/A,,Mostly Cloudy,0,2013-08-20 09:56:00
2:16 AM,51.8,50.0,94,30.03,9.0,Calm,Calm,-,N/A,,Overcast,0,2013-08-20 10:16:00
2:36 AM,51.8,50.0,94,30.03,7.0,Calm,Calm,-,0.01,,Overcast,0,2013-08-20 10:36:00
2:56 AM,51.8,50.0,94,30.04,10.0,Calm,Calm,-,0.01,,Mostly Cloudy,0,2013-08-20 10:56:00
3:36 AM,51.8,50.0,94,30.04,10.0,Calm,Calm,-,N/A,,Overcast,0,2013-08-20 11:36:00
3:56 AM,51.8,50.0,94,30.04,10.0,Calm,Calm,-,N/A,,Mostly Cloudy,0,2013-08-20 11:56:00
4:16 AM,51.8,48.2,88,30.05,10.0,Calm,Calm,-,N/A,,Mostly Cloudy,0,2013-08-20 12:16:00
4:36 AM,51.8,48.2,88,30.05,4.0,SSE,3.5,-,N/A,,Mostly Cloudy,160,2013-08-20 12:36:00
4:56 AM,50.0,48.2,94,30.05,7.0,Calm,Calm,-,N/A,,Mostly Cloudy,0,2013-08-20 12:56:00
5:16 AM,50.0,48.2,94,30.06,0.5,Calm,Calm,-,N/A,,Overcast,0,2013-08-20 13:16:00
5:56 AM,51.8,48.2,88,30.07,1.0,Calm,Calm,-,N/A,,Overcast,0,2013-08-20 13:56:00
6:36 AM,51.8,48.2,88,30.07,10.0,Calm,Calm,-,N/A,,Overcast,0,2013-08-20 14:36:00
6:56 AM,51.8,50.0,94,30.08,10.0,Calm,Calm,-,N/A,,Mostly Cloudy,0,2013-08-20 14:56:00
7:36 AM,51.8,50.0,94,30.09,10.0,Calm,Calm,-,N/A,,Mostly Cloudy,0,2013-08-20 15:36:00
7:56 AM,53.6,50.0,88,30.09,10.0,Calm,Calm,-,N/A,,Overcast,0,2013-08-20 15:56:00
8:55 AM,53.6,51.8,94,30.11,10.0,Calm,Calm,-,N/A,Fog,Patches of Fog,0,2013-08-20 16:55:00
9:36 AM,55.4,53.6,94,30.11,10.0,NE,4.6,-,N/A,,Mostly Cloudy,50,2013-08-20 17:36:00
9:56 AM,55.4,51.8,88,30.11,10.0,NE,3.5,-,N/A,,Mostly Cloudy,40,2013-08-20 17:56:00
10:16 AM,55.4,51.8,88,30.12,10.0,ENE,3.5,-,N/A,,Mostly Cloudy,70,2013-08-20 18:16:00
10:36 AM,55.4,51.8,88,30.12,10.0,ENE,4.6,-,N/A,,Mostly Cloudy,70,2013-08-20 18:36:00
10:56 AM,55.4,51.8,88,30.13,10.0,ENE,6.9,-,N/A,,Mostly Cloudy,60,2013-08-20 18:56:00
11:16 AM,55.4,51.8,88,30.13,10.0,ENE,6.9,-,N/A,,Mostly Cloudy,70,2013-08-20 19:16:00
11:36 AM,55.4,51.8,88,30.14,10.0,East,3.5,-,N/A,,Mostly Cloudy,90,2013-08-20 19:36:00
12:16 PM,53.6,51.8,94,30.15,10.0,NE,4.6,-,N/A,,Overcast,50,2013-08-20 20:16:00
12:57 PM,55.4,51.8,88,30.16,10.0,NE,4.6,-,N/A,Rain,Light Rain Showers,50,2013-08-20 20:57:00
1:16 PM,55.4,51.8,88,30.16,10.0,East,4.6,-,N/A,,Overcast,90,2013-08-20 21:16:00
1:36 PM,55.4,53.6,94,30.16,10.0,ENE,4.6,-,N/A,,Overcast,60,2013-08-20 21:36:00
1:57 PM,55.4,51.8,88,30.16,10.0,NE,5.8,-,N/A,,Overcast,40,2013-08-20 21:57:00
2:16 PM,57.2,53.6,88,30.16,10.0,ENE,5.8,-,N/A,,Overcast,60,2013-08-20 22:16:00
3:55 PM,59.0,51.8,77,30.17,10.0,NE,5.8,-,N/A,,Mostly Cloudy,40,2013-08-20 23:55:00
4:36 PM,59.0,51.8,77,30.17,10.0,East,4.6,-,N/A,,Mostly Cloudy,80,2013-08-21 00:36:00
5:36 PM,57.2,50.0,77,30.16,10.0,NNE,8.1,-,N/A,,Mostly Cloudy,20,2013-08-21 01:36:00
5:56 PM,55.4,48.2,77,30.16,10.0,NNE,6.9,-,N/A,,Mostly Cloudy,30,2013-08-21 01:56:00
6:16 PM,53.6,48.2,82,30.16,10.0,East,4.6,-,N/A,,Mostly Cloudy,80,2013-08-21 02:16:00
6:36 PM,55.4,50.0,82,30.15,10.0,ESE,3.5,-,N/A,,Mostly Cloudy,110,2013-08-21 02:36:00
6:55 PM,55.4,50.0,82,30.15,10.0,ENE,3.5,-,N/A,,Scattered Clouds,60,2013-08-21 02:55:00
7:36 PM,53.6,48.2,82,30.14,10.0,East,4.6,-,N/A,,Scattered Clouds,100,2013-08-21 03:36:00
7:56 PM,53.6,48.2,82,30.15,10.0,SE,3.5,-,N/A,,Scattered Clouds,130,2013-08-21 03:56:00
8:36 PM,53.6,48.2,82,30.15,10.0,SE,4.6,-,N/A,,Scattered Clouds,130,2013-08-21 04:36:00
8:56 PM,51.8,48.2,88,30.15,10.0,Calm,Calm,-,N/A,,Scattered Clouds,0,2013-08-21 04:56:00
9:36 PM,50.0,46.4,87,30.16,10.0,Calm,Calm,-,N/A,,Scattered Clouds,0,2013-08-21 05:36:00
9:56 PM,50.0,48.2,94,30.16,10.0,Calm,Calm,-,N/A,,Scattered Clouds,0,2013-08-21 05:56:00
10:16 PM,51.8,48.2,88,30.16,10.0,Calm,Calm,-,N/A,,Overcast,0,2013-08-21 06:16:00
10:36 PM,51.8,48.2,88,30.16,10.0,Calm,Calm,-,N/A,,Overcast,0,2013-08-21 06:36:00
11:16 PM,51.8,48.2,88,30.16,10.0,Calm,Calm,-,N/A,,Overcast,0,2013-08-21 07:16:00
11:36 PM,51.8,48.2,88,30.15,10.0,Calm,Calm,-,N/A,,Overcast,0,2013-08-21 07:36:00